Location: Berlancourt
(49.7787°N, 3.7573°E)
Time: 14:25:36
(UTC+00:00)

Daily predictions for brighter satellites

Satellite Brightness Start Highest point End
(mag) Time Altitude Azimuth Time Altitude Azimuth Time Altitude Azimuth
USA 215 3.7 20:17:10 10° SE 20:23:36 56° SW 20:30:03 10° WNW
Cosmos 494 Rocket 4.1 20:18:43 10° NNW 20:24:02 87° WSW 20:29:16 10° SSE
NOSS 2-3 (D) 4.0 20:24:36 10° S 20:27:48 29° ESE 20:31:17 10° ENE
IRS-1A Rocket 4.4 20:23:45 10° SSE 20:29:23 82° ENE 20:35:13 10° NNW
Okean-O 3.2 20:25:24 10° S 20:29:45 60° W 20:34:08 10° NNW
Gbstr 26 Del rocket 3.2 20:28:07 10° WSW 20:32:25 87° SSE 20:37:43 10° ENE
Timation 2 Rocket 4.3 20:26:44 10° S 20:32:42 46° ESE 20:38:30 10° NE
CZ-4C R/B 3.1 20:29:25 10° NNE 20:33:07 62° ESE 20:36:39 10° S
Cosmos 1125 Rocket 4.3 20:30:14 10° SSE 20:34:57 34° ESE 20:39:40 10° NE
USA 276 2.0 20:36:44 10° W 20:39:39 64° SSW 20:42:39 10° ESE
Cosmos 2084 3.5 20:39:04 10° SSW 20:43:03 48° SE 20:46:53 10° NE
SPOT 3 Rocket 3.8 20:38:57 10° SSE 20:44:04 59° ENE 20:49:11 10° N
NOSS 2-2 (E) 2.8 20:47:25 10° SSW 20:50:35 52° SE 20:53:40 10° NE
NOSS 2-2 (C) 2.6 20:47:44 10° SW 20:50:55 83° SE 20:54:04 10° NE
Landsat 4 4.1 20:49:58 12° SE 20:52:57 41° ENE 20:56:13 10° N
In-Cosmos 22 Rocket 4.3 20:47:19 10° S 20:53:00 68° E 20:58:36 10° NNE
Nadezhda 3 Rocket 4.0 20:46:52 10° N 20:53:03 87° W 20:59:12 10° S
BREEZE-M DEB (TANK) 3.4 20:51:32 10° W 20:54:19 59° SSW 21:01:42 10° ESE
Cosmos 1544 Rocket 4.1 20:50:13 10° N 20:54:21 42° ENE 20:58:03 12° SE
NOSS 2-3 (E) 3.2 20:53:10 10° SSW 20:56:46 60° SE 21:00:47 10° NE
Cosmos 1844 4.2 20:51:45 10° SW 20:57:32 68° WNW 21:03:18 10° NNE
Terra 1.9 20:53:13 10° SSE 20:57:56 81° WSW 21:02:41 10° NNW
Meteor 1-21 Rocket 4.5 20:58:58 10° SSW 21:04:30 72° WNW 21:10:04 10° N
USA 305 3.9 21:01:47 10° WNW 21:05:24 39° N 21:08:40 10° ENE
ATLAS CENTAUR R/B 1.9 21:03:32 10° NW 21:07:23 49° SW 21:10:52 13° SSE
Cosmos 1437 Rocket 3.6 21:07:19 15° SSE 21:09:42 29° E 21:12:54 10° NNE
Meteor 2-1 Rocket 4.3 21:07:51 10° NNW 21:13:32 81° W 21:18:58 10° S
Cosmos 1833 Rocket 2.8 21:07:58 10° NNW 21:13:39 71° ENE 21:18:22 15° SE
NOSS 2-3 (C) 3.1 21:10:52 10° SW 21:14:30 85° SE 21:18:39 10° NE
Cosmos 1455 Rocket 3.9 21:10:34 10° NNW 21:14:49 48° W 21:19:00 10° SSW
Cosmos 1975 Rocket 3.3 21:14:28 10° SSW 21:18:55 74° WNW 21:23:24 10° N
Cosmos 1025 Rocket 4.5 21:15:31 10° SW 21:19:27 37° WNW 21:23:26 10° N
Orbus 7S? 4.3 21:17:35 10° W 21:19:47 22° SW 21:21:20 14° S
Cosmos 44 3.8 21:14:54 10° S 21:19:51 43° ESE 21:24:38 10° NE
Cosmos 962 Rocket 4.5 21:15:39 10° S 21:21:50 73° E 21:27:58 10° NNE
Lacrosse 5 2.5 21:17:02 10° WSW 21:22:02 61° NNW 21:27:05 10° NE
ERS-1 Rocket 4.0 21:19:01 10° S 21:23:46 43° W 21:28:33 10° NNW
Spot 2 Rocket 4.0 21:19:42 10° S 21:24:43 56° W 21:29:45 10° NNW
Cosmos 220 Rocket 3.9 21:20:54 10° NNW 21:25:04 82° WSW 21:28:09 18° SSE
Cosmos 2082 Rocket 3.4 21:21:37 10° NNW 21:26:41 33° NE 21:31:39 10° ESE
NOSS 2-2 (D) 3.1 21:25:13 10° SW 21:28:23 65° NW 21:31:34 10° NE
ATLAS 5 CENTAUR R/B 3.4 21:25:37 10° W 21:28:38 28° NNW 21:32:03 10° NNE
USA 307 3.8 21:24:54 10° W 21:28:39 44° N 21:32:15 10° ENE
Cosmos 2218 Rocket 4.2 21:23:42 13° SSE 21:28:57 53° E 21:34:57 10° NNE
Landsat 5 3.8 21:26:27 10° NNE 21:30:47 54° E 21:34:10 16° S
Cosmos 1844 Rocket 4.4 21:28:41 10° WSW 21:33:48 36° NW 21:38:56 10° NNE
Cosmos 2278 Rocket 3.1 21:31:13 17° SSE 21:34:40 31° ESE 21:39:34 10° NE
Cosmos 1606 3.3 21:31:46 10° NNW 21:35:13 48° W 21:38:05 14° SSW
MetOp-A 3.6 21:35:02 18° SSE 21:38:26 82° ENE 21:42:46 10° NNW
Cosmos 2298 Rocket 4.1 21:33:42 10° S 21:38:56 62° ESE 21:44:12 10° NNE
Cosmos 2341 Rocket 4.0 21:33:38 10° S 21:39:53 80° E 21:46:16 10° NNE
ULPM Upper Stage 4.3 21:36:16 10° NW 21:40:14 32° NNE 21:44:09 10° E
Cosmos 614 Rocket 3.9 21:36:00 10° NNW 21:41:06 78° ENE 21:44:35 20° SSE
H-2A R/B 4.2 21:44:33 12° ESE 21:46:51 19° ENE 21:49:38 10° NNE
Cosmos 1869 4.3 21:43:27 10° NNW 21:47:02 40° W 21:50:08 13° SSW
Cosmos 1536 Rocket 3.5 21:47:10 20° S 21:50:06 66° E 21:54:24 10° NNE
CZ-4C R/B 3.9 21:44:01 10° NW 21:50:07 39° NNE 21:57:33 10° E
Ariane Rocket 4.2 21:47:33 10° SSW 21:52:13 36° W 21:56:54 10° NNW
ISS -3.3 21:50:11 10° W 21:53:29 61° N 21:56:47 10° E
COSMOS 2406 4.1 21:51:03 10° NNW 21:56:26 41° NE 22:00:48 15° ESE
USA 290 3.5 21:58:15 24° ESE 21:58:23 24° ESE 22:01:01 10° NE
ARIANE 5 R/B 2.9 21:58:54 24° SE 22:01:25 57° ENE 22:05:48 10° N
Cosmos 1269 Rocket 4.3 21:58:30 10° NNW 22:03:47 61° ENE 22:07:06 23° SE
BREEZE-M DEB (TANK) 3.8 21:54:17 10° WNW 22:04:09 38° SW 22:06:11 24° S
Cosmos 1727 Rocket 4.1 21:58:16 10° N 22:04:38 69° ENE 22:08:48 22° SSE
ATLAS 3B R/B 3.6 22:01:26 21° SSE 22:05:01 31° ESE 22:11:26 10° NE
Cosmos 2228 3.6 22:01:16 10° NNW 22:05:20 48° W 22:08:06 19° SSW
Geosat 4.5 22:04:43 10° NNE 22:09:41 63° NW 22:14:37 10° SW
Cosmos 1943 Rocket 2.8 22:08:20 24° SSE 22:11:01 37° ESE 22:16:09 10° NE
USA 276 3.9 22:11:20 10° W 22:13:09 18° SW 22:13:09 18° SW
Cosmos 1821 Rocket 4.1 22:09:49 21° S 22:14:12 70° E 22:20:32 10° NNE
USA 281 4.3 22:09:53 10° ESE 22:15:45 36° NE 22:21:38 10° NNW
Gbstr 26 Del rocket 3.7 22:14:33 10° W 22:19:19 71° N 22:25:15 10° E
Cosmos 2058 4.1 22:19:03 24° ESE 22:20:14 28° E 22:23:46 10° NNE
Cosmos 2150 Rocket 4.4 22:15:17 10° SW 22:20:39 66° WNW 22:26:07 10° NNE
ALOS 2 3.7 22:19:19 21° ESE 22:21:36 34° ENE 22:25:34 10° N
Cosmos 2084 Rocket 3.2 22:21:35 10° NW 22:25:35 79° NE 22:27:21 31° SE
Spot 4 4.3 22:23:23 25° SE 22:25:58 54° ENE 22:30:43 10° N
NOSS 3-1 (C) 3.0 22:24:27 10° SW 22:29:18 77° SE 22:35:18 10° NE
Cosmos 1544 4.2 22:30:25 16° ENE 22:30:25 16° ENE 22:31:18 10° NE
SeaSat 1 2.8 22:26:56 23° SE 22:29:55 60° NE 22:34:47 10° NNW
Cosmos 1812 2.4 22:31:53 10° N 22:35:27 75° E 22:36:28 43° SSE
Terra 4.4 22:34:56 10° WSW 22:36:18 11° W 22:37:40 10° WNW
USA 305 3.3 22:34:36 10° WNW 22:38:05 44° NNE 22:40:35 14° E
Cosmos 1238 Rocket 3.6 22:37:50 10° N 22:40:58 34° ENE 22:42:01 28° ESE
Aureole 2 4.2 22:41:11 43° SW 22:42:06 80° WNW 22:45:30 10° NNE
BREEZE-M R/B 3.9 22:38:05 10° WSW 22:42:31 75° SSE 22:57:57 10° E
PSLV R/B 3.8 22:39:19 10° NNE 22:43:19 78° ESE 22:44:50 37° S
Cosmos 1892 Rocket 3.5 22:45:05 34° S 22:46:57 77° E 22:51:25 10° NNE
Cosmos 2251 Rocket 4.4 22:42:31 10° NNW 22:47:37 42° ENE 22:51:01 19° ESE
Cosmos 1140 Rocket 3.5 22:47:07 10° NNW 22:52:15 71° ENE 22:54:48 30° SE
MINOTAUR 4 R/B 3.2 22:54:04 10° NNE 22:56:56 85° ESE 22:57:02 81° SSE
Cosmos 1833 Rocket 4.4 22:52:47 10° NW 22:57:01 22° WSW 23:00:03 14° SW
Cosmos 2239 Rocket 4.5 22:55:30 25° SSW 22:59:22 82° W 23:05:39 10° N
SL-08 R/B 4.5 22:57:35 25° SSW 23:01:21 80° W 23:07:29 10° N
BREEZE-M DEB (TANK) 3.6 22:58:42 10° W 23:01:39 69° SSW 23:09:38 10° ESE
USA 307 3.3 22:58:35 10° WNW 23:02:20 51° NNE 23:05:32 11° E
Cosmos-2242 3.6 23:00:18 10° N 23:04:22 45° ENE 23:05:51 31° SE
Cosmos 2123 Rocket 4.0 22:58:09 10° N 23:04:28 89° E 23:07:51 30° S
CENTAUR R/B 4.3 22:58:24 10° NW 23:05:36 41° NNE 23:13:57 10° E
Lacrosse 5 3.5 23:01:03 10° WNW 23:05:44 36° N 23:10:26 10° ENE
NOSS 3-1 (A) 3.0 23:03:57 27° SSW 23:06:44 70° SE 23:12:42 10° NE
Cosmos 1726 Rocket 4.3 23:03:17 10° NNW 23:07:23 42° W 23:09:05 28° SW
NOSS 8 (F) 4.3 23:05:35 10° NW 23:08:39 66° SW 23:09:06 57° S
Cosmos 2082 Rocket 2.5 23:05:34 10° NW 23:11:03 54° WSW 23:13:28 31° S
Cosmos 1515 3.9 23:10:53 10° N 23:14:18 50° ENE 23:14:57 43° ESE
Cosmos 2278 Rocket 2.9 23:12:59 10° SW 23:18:29 52° NW 23:24:03 10° NNE
ULPM Upper Stage 2.9 23:15:35 10° NW 23:19:53 59° SW 23:20:59 44° S
Lacrosse 4 Rocket 3.7 23:20:40 11° ESE 23:20:40 11° ESE 23:21:44 10° E
PSLV R/B 3.9 23:16:49 10° NNE 23:21:04 53° E 23:22:20 39° SSE
Cosmos 2369 Rocket 3.3 23:19:37 24° SE 23:21:14 27° ESE 23:25:53 10° NE
H-2A R/B 2.9 23:20:31 36° SW 23:21:30 45° W 23:25:13 10° NNW
Cosmos 489 Rocket 4.4 23:24:24 30° SSW 23:27:42 78° ESE 23:33:56 10° NNE
Cosmos 1190 Rocket 4.5 23:24:42 10° NNW 23:29:50 55° ENE 23:32:46 25° SE
ISS -3.9 23:27:00 10° WNW 23:30:10 67° SW 23:30:10 67° SW
USA 290 4.3 23:30:56 15° W 23:32:42 24° WNW 23:35:23 10° N
Cosmos 2058 Rocket 3.8 23:29:05 10° NNW 23:33:12 43° W 23:34:37 32° SW
Cosmos 1782 2.6 23:29:58 10° N 23:33:46 84° W 23:34:35 54° S
USA 229 DEB 4.0 23:32:18 31° SSE 23:34:35 43° ESE 23:40:51 10° NE
USA 229 4.0 23:32:27 31° SSE 23:34:43 42° ESE 23:40:58 10° NE
CRYOSAT 2 4.4 23:31:04 10° N 23:35:58 80° W 23:37:58 36° SSW
Cosmos 1862 3.9 23:35:38 37° ESE 23:36:20 41° E 23:39:59 10° NNE
Cosmos 1378 2.6 23:34:38 10° N 23:37:52 79° E 23:38:06 71° SE
Cosmos 482 Debris 4.3 23:34:17 10° W 23:38:48 73° NNW 23:42:04 10° ENE
CZ-4C R/B 2.9 23:32:14 10° NW 23:39:17 83° SW 23:45:35 20° SE
COSMOS 2455 3.9 23:34:19 10° NNW 23:40:05 43° NE 23:45:49 10° ESE
Meteor 2-2 Rocket 4.2 23:34:55 10° NNW 23:40:40 87° WSW 23:43:24 33° S
COSMOS 2406 3.9 23:35:27 10° NW 23:40:44 41° WSW 23:42:50 30° SSW
Cosmos 1934 Rocket 4.2 23:39:12 26° SSW 23:42:51 64° WNW 23:49:03 10° N
Cosmos 2221 3.6 23:41:05 10° N 23:45:00 35° ENE 23:46:52 24° ESE
Cosmos 2285 Rocket 4.0 23:45:21 10° NNW 23:51:50 83° ENE 23:55:34 27° SSE
Cosmos 1825 Rocket 4.4 23:54:06 30° SE 23:55:26 37° E 23:59:25 10° NNE
